KC5TIL-3 Weather Reports


Display with metric or nautical units.
time (UTC)temp
F
wind
direction
speed
MPH
gust
MPH
rain 1hr
in
rain 24hr
in
rain mn
in
humidity
%
barometer
mb
20260901105936 81 192 6.0 10.0 0.00 0.00 0.00 36 1013.8
20260901105435 81 212 7.0 7.0 0.00 0.00 0.00 36 1013.8
20260901104937 82 222 6.0 9.0 0.00 0.00 0.00 35 1013.8
20260901104438 82 191 5.0 9.0 0.00 0.00 0.00 35 1013.8
20260901103937 82 171 4.0 9.0 0.00 0.00 0.00 34 1013.8
20260901103434 82 196 6.0 7.0 0.00 0.00 0.00 34 1013.8
20260901102936 82 191 5.0 8.0 0.00 0.00 0.00 34 1013.8
20260901102430 82 186 5.0 10.0 0.00 0.00 0.00 34 1013.8
20260901101434 83 202 7.0 8.0 0.00 0.00 0.00 34 1013.8
20260901100932 83 175 5.0 10.0 0.00 0.00 0.00 34 1013.8
20260901100434 83 209 8.0 9.0 0.00 0.00 0.00 33 1013.8
20260901095936 83 223 6.0 9.0 0.00 0.00 0.00 33 1013.8
20260901095434 83 211 6.0 10.0 0.00 0.00 0.00 32 1013.8
20260901094932 83 195 7.0 11.0 0.00 0.00 0.00 33 1013.8
20260901094434 83 218 6.0 11.0 0.00 0.00 0.00 32 1013.8
20260901093928 83 200 9.0 12.0 0.00 0.00 0.00 32 1013.8
20260901093430 83 234 9.0 11.0 0.00 0.00 0.00 32 1013.8
20260901092931 84 159 7.0 10.0 0.00 0.00 0.00 31 1013.8
20260901092430 84 174 5.0 11.0 0.00 0.00 0.00 31 1013.8
20260901091932 84 213 7.0 10.0 0.00 0.00 0.00 31 1013.8
20260901091434 84 203 7.0 9.0 0.00 0.00 0.00 31 1013.8
20260901090928 84 201 7.0 10.0 0.00 0.00 0.00 31 1013.8
20260901090430 84 208 7.0 10.0 0.00 0.00 0.00 31 1013.8
20260901085931 84 215 6.0 8.0 0.00 0.00 0.00 30 1013.8
20260901085430 83 195 4.0 9.0 0.00 0.00 0.00 30 1013.8
20260901084932 83 159 5.0 9.0 0.00 0.00 0.00 30 1013.8
20260901084434 84 230 5.0 9.0 0.00 0.00 0.00 30 1013.8
20260901083932 84 201 4.0 9.0 0.00 0.00 0.00 30 1013.8
20260901083434 84 85 4.0 8.0 0.00 0.00 0.00 29 1013.8
20260901082936 84 174 4.0 7.0 0.00 0.00 0.00 29 1013.8
20260901082435 84 215 5.0 10.0 0.00 0.00 0.00 29 1013.8
20260901081937 84 123 6.0 10.0 0.00 0.00 0.00 29 1013.8
20260901081433 84 190 6.0 9.0 0.00 0.00 0.00 28 1013.8
20260901080932 84 135 4.0 7.0 0.00 0.00 0.00 27 1013.8
20260901080434 84 174 4.0 10.0 0.00 0.00 0.00 25 1013.8
20260901075936 85 165 4.0 10.0 0.00 0.00 0.00 25 1012.8
20260901075434 85 217 7.0 10.0 0.00 0.00 0.00 24 1012.8
20260901074936 85 201 7.0 11.0 0.00 0.00 0.00 23 1012.8
20260901074433 85 211 5.0 9.0 0.00 0.00 0.00 22 1012.8
20260901073932 84 194 5.0 9.0 0.00 0.00 0.00 22 1012.8
20260901073433 84 195 6.0 10.0 0.00 0.00 0.00 21 1012.8
20260901072935 84 140 6.0 8.0 0.00 0.00 0.00 20 1012.8
20260901072434 84 141 4.0 9.0 0.00 0.00 0.00 20 1012.8
20260901071936 84 159 7.0 9.0 0.00 0.00 0.00 20 1012.8
20260901071438 84 126 5.0 9.0 0.00 0.00 0.00 19 1012.8
20260901070936 84 132 5.0 9.0 0.00 0.00 0.00 19 1012.8
20260901070438 85 119 6.0 9.0 0.00 0.00 0.00 19 1012.8
20260901065940 85 127 6.0 8.0 0.00 0.00 0.00 19 1012.8
20260901065439 85 121 7.0 8.0 0.00 0.00 0.00 19 1012.8
20260901064940 85 118 7.0 8.0 0.00 0.00 0.00 18 1012.8
20260901064442 85 130 5.0 8.0 0.00 0.00 0.00 18 1012.8
20260901063941 85 128 6.0 7.0 0.00 0.00 0.00 18 1012.8
20260901062945 86 128 4.0 7.0 0.00 0.00 0.00 18 1012.8
20260901062443 86 128 4.0 8.0 0.00 0.00 0.00 18 1012.8
20260901061945 86 123 5.0 9.0 0.00 0.00 0.00 18 1012.8
20260901061447 86 121 6.0 9.0 0.00 0.00 0.00 18 1012.8
20260901060946 86 127 6.0 9.0 0.00 0.00 0.00 18 1012.8
20260901060447 86 114 7.0 12.0 0.00 0.00 0.00 18 1012.8
20260901055949 86 115 10.0 6.0 0.00 0.00 0.00 18 1012.8
20260901055448 87 135 3.0 7.0 0.00 0.00 0.00 18 1012.8
20260901054950 87 137 3.0 6.0 0.00 0.00 0.00 18 1012.8
20260901054452 87 137 4.0 5.0 0.00 0.00 0.00 18 1011.8
20260901053950 87 141 4.0 6.0 0.00 0.00 0.00 18 1011.8
20260901052954 87 131 4.0 6.0 0.00 0.00 0.00 18 1011.8
20260901052453 87 138 3.0 6.0 0.00 0.00 0.00 18 1011.8
20260901051954 87 137 0.0 6.0 0.00 0.00 0.00 18 1011.8
20260901051456 88 139 3.0 5.0 0.00 0.00 0.00 18 1011.8
20260901050955 88 133 4.0 6.0 0.00 0.00 0.00 18 1011.8
20260901045959 88 132 4.0 6.0 0.00 0.00 0.00 18 1011.8
20260901045457 88 126 4.0 6.0 0.00 0.00 0.00 18 1011.8
20260901044949 88 131 4.0 7.0 0.00 0.00 0.00 15 1011.8
20260901044451 88 136 4.0 5.0 0.00 0.00 0.00 15 1011.8
20260901043950 88 131 4.0 7.0 0.00 0.00 0.00 15 1011.8
20260901043452 88 133 5.0 7.0 0.00 0.00 0.00 15 1011.8
20260901042953 88 132 4.0 5.0 0.00 0.00 0.00 15 1011.8
20260901042452 89 123 3.0 6.0 0.00 0.00 0.00 15 1011.8
20260901041949 89 119 3.0 6.0 0.00 0.00 0.00 15 1011.8
20260901041451 89 147 4.0 6.0 0.00 0.00 0.00 15 1011.8
20260901040949 89 133 4.0 7.0 0.00 0.00 0.00 15 1011.8
20260901040451 89 126 4.0 7.0 0.00 0.00 0.00 15 1011.8
20260901035943 89 130 5.0 7.0 0.00 0.00 0.00 15 1011.8
20260901035428 89 129 5.0 7.0 0.00 0.00 0.00 15 1011.8
20260901034930 90 130 6.0 7.0 0.00 0.00 0.00 15 1011.8
20260901034413 90 131 4.0 7.0 0.00 0.00 0.00 15 1011.8
20260901033911 90 119 5.0 7.0 0.00 0.00 0.00 15 1011.8
20260901033413 90 125 5.0 6.0 0.00 0.00 0.00 15 1011.8
20260901032915 90 127 4.0 7.0 0.00 0.00 0.00 14 1011.8
20260901032414 90 125 4.0 7.0 0.00 0.00 0.00 14 1011.8
20260901031916 91 127 5.0 9.0 0.00 0.00 0.00 14 1011.8
20260901031417 91 118 4.0 7.0 0.00 0.00 0.00 14 1011.8
20260901030916 91 123 6.0 7.0 0.00 0.00 0.00 14 1011.8
20260901030418 91 132 5.0 6.0 0.00 0.00 0.00 14 1011.8
20260901025920 92 130 4.0 8.0 0.00 0.00 0.00 14 1011.8
20260901025418 92 126 4.0 8.0 0.00 0.00 0.00 14 1011.8
20260901024920 92 131 5.0 7.0 0.00 0.00 0.00 14 1011.8
20260901024422 92 146 4.0 7.0 0.00 0.00 0.00 14 1011.8
20260901023916 92 139 4.0 6.0 0.00 0.00 0.00 14 1011.8
20260901023418 92 139 4.0 7.0 0.00 0.00 0.00 11 1011.8
20260901022920 92 138 4.0 7.0 0.00 0.00 0.00 11 1011.8
20260901022419 93 118 4.0 9.0 0.00 0.00 0.00 11 1011.8
20260901021915 93 130 6.0 8.0 0.00 0.00 0.00 11 1011.8
20260901021417 93 130 6.0 10.0 0.00 0.00 0.00 11 1011.8
20260901020916 93 138 5.0 10.0 0.00 0.00 0.00 11 1011.8
20260901020416 93 126 7.0 9.0 0.00 0.00 0.00 11 1010.8
20260901015917 94 118 8.0 9.0 0.00 0.00 0.00 11 1010.8
20260901015415 94 116 7.0 12.0 0.00 0.00 0.00 11 1010.8
20260901014912 94 117 7.0 9.0 0.00 0.00 0.00 11 1010.8
20260901014414 94 116 6.0 9.0 0.00 0.00 0.00 11 1010.8
20260901013913 94 131 5.0 7.0 0.00 0.00 0.00 11 1010.8
20260901013414 94 134 5.0 8.0 0.00 0.00 0.00 11 1010.8
20260901012916 94 140 6.0 9.0 0.00 0.00 0.00 11 1010.8
20260901012415 95 132 6.0 10.0 0.00 0.00 0.00 11 1010.8
20260901011917 95 131 5.0 8.0 0.00 0.00 0.00 11 1010.8
20260901011419 95 129 6.0 9.0 0.00 0.00 0.00 11 1010.8
20260901010917 95 133 6.0 9.0 0.00 0.00 0.00 11 1010.8
20260901010419 95 115 6.0 10.0 0.00 0.00 0.00 11 1010.8
20260901005912 95 127 6.0 10.0 0.00 0.00 0.00 11 1010.8
20260901005411 95 113 8.0 11.0 0.00 0.00 0.00 11 1010.8
20260901004903 95 127 6.0 13.0 0.00 0.00 0.00 11 1010.8
20260901004405 95 96 10.0 10.0 0.00 0.00 0.00 11 1010.8
20260901003904 96 119 8.0 12.0 0.00 0.00 0.00 11 1010.8
20260901003405 96 117 10.0 12.0 0.00 0.00 0.00 11 1010.8
20260901002907 96 120 9.0 13.0 0.00 0.00 0.00 11 1010.8
20260901002406 96 120 8.0 11.0 0.00 0.00 0.00 11 1010.8
20260901001903 96 135 7.0 13.0 0.00 0.00 0.00 11 1010.8
20260901001400 96 121 10.0 13.0 0.00 0.00 0.00 11 1010.8
20260901000859 96 130 10.0 17.0 0.00 0.00 0.00 11 1010.8
20260901000401 96 111 10.0 13.0 0.00 0.00 0.00 11 1010.8
20260831235902 96 129 12.0 16.0 0.00 0.00 0.00 11 1010.8
20260831235401 97 127 13.0 14.0 0.00 0.00 0.00 11 1010.8
20260831234903 97 141 8.0 17.0 0.00 0.00 0.00 11 1010.8
20260831234405 97 111 14.0 14.0 0.00 0.00 0.00 11 1010.8
20260831233903 97 124 11.0 16.0 0.00 0.00 0.00 11 1010.8
20260831233405 97 117 9.0 12.0 0.00 0.00 0.00 11 1010.8
20260831232907 98 124 7.0 9.0 0.00 0.00 0.00 10 1010.8
20260831232406 98 142 7.0 10.0 0.00 0.00 0.00 10 1010.8
20260831231409 97 127 4.0 6.0 0.00 0.00 0.00 11 1010.8
20260831230908 97 128 4.0 8.0 0.00 0.00 0.00 11 1010.8
20260831230410 97 112 5.0 10.0 0.00 0.00 0.00 11 1010.8
20260831225912 97 140 6.0 10.0 0.00 0.00 0.00 11 1010.8
20260831225410 98 217 5.0 11.0 0.00 0.00 0.00 10 1010.8
20260831224912 98 161 6.0 10.0 0.00 0.00 0.00 10 1010.8
20260831224414 99 148 5.0 13.0 0.00 0.00 0.00 10 1010.8
20260831223913 98 128 10.0 12.0 0.00 0.00 0.00 10 1010.8
20260831223415 98 126 7.0 13.0 0.00 0.00 0.00 10 1010.8
20260831222916 98 115 11.0 8.0 0.00 0.00 0.00 10 1010.8
20260831222415 99 152 3.0 10.0 0.00 0.00 0.00 10 1010.8
20260831221414 99 130 9.0 12.0 0.00 0.00 0.00 10 1010.8
20260831220908 99 126 10.0 12.0 0.00 0.00 0.00 10 1010.8
20260831220410 98 145 9.0 10.0 0.00 0.00 0.00 10 1010.8
20260831215912 99 123 5.0 13.0 0.00 0.00 0.00 10 1010.8
20260831215410 98 124 8.0 13.0 0.00 0.00 0.00 10 1010.8
20260831213913 98 135 4.0 11.0 0.00 0.00 0.00 10 1011.8
20260831213414 97 108 6.0 12.0 0.00 0.00 0.00 11 1011.8
20260831212916 97 121 4.0 12.0 0.00 0.00 0.00 11 1011.8
20260831212415 97 125 9.0 12.0 0.00 0.00 0.00 11 1011.8
20260831211917 99 133 7.0 7.0 0.00 0.00 0.00 10 1011.8
20260831211419 97 183 3.0 10.0 0.00 0.00 0.00 11 1011.8
20260831210917 97 160 4.0 11.0 0.00 0.00 0.00 11 1011.8
20260831205916 97 214 5.0 11.0 0.00 0.00 0.00 11 1011.8
20260831205415 98 114 7.0 12.0 0.00 0.00 0.00 10 1011.8
20260831204917 98 134 9.0 8.0 0.00 0.00 0.00 10 1011.8
20260831204414 98 213 6.0 11.0 0.00 0.00 0.00 10 1011.8
20260831203913 97 146 6.0 12.0 0.00 0.00 0.00 11 1011.8
20260831203415 97 129 8.0 10.0 0.00 0.00 0.00 11 1011.8
20260831202917 98 129 6.0 13.0 0.00 0.00 0.00 10 1011.8
20260831202415 98 213 5.0 8.0 0.00 0.00 0.00 10 1011.8
20260831201917 99 188 4.0 9.0 0.00 0.00 0.00 10 1012.8
20260831201419 98 132 6.0 11.0 0.00 0.00 0.00 10 1012.8
20260831200918 98 189 6.0 13.0 0.00 0.00 0.00 10 1012.8
20260831200415 99 210 7.0 14.0 0.00 0.00 0.00 10 1012.8
20260831195917 98 134 8.0 15.0 0.00 0.00 0.00 10 1012.8
20260831195415 97 144 3.0 13.0 0.00 0.00 0.00 11 1012.8
20260831194917 97 142 9.0 15.0 0.00 0.00 0.00 13 1012.8
20260831194419 97 228 7.0 12.0 0.00 0.00 0.00 13 1012.8
20260831193918 98 141 8.0 14.0 0.00 0.00 0.00 13 1012.8
20260831193419 97 126 5.0 13.0 0.00 0.00 0.00 13 1012.8
20260831192921 97 129 11.0 15.0 0.00 0.00 0.00 13 1012.8
20260831192420 96 128 8.0 14.0 0.00 0.00 0.00 13 1012.8
20260831191922 96 111 10.0 13.0 0.00 0.00 0.00 13 1012.8
20260831191424 96 107 11.0 13.0 0.00 0.00 0.00 13 1012.8
20260831190922 96 129 9.0 13.0 0.00 0.00 0.00 13 1012.8
20260831190424 96 118 8.0 17.0 0.00 0.00 0.00 13 1012.8
20260831185926 96 144 9.0 13.0 0.00 0.00 0.00 14 1012.8
20260831185424 96 160 8.0 13.0 0.00 0.00 0.00 13 1012.8
20260831184926 95 176 7.0 13.0 0.00 0.00 0.00 14 1012.8
20260831184428 95 180 7.0 15.0 0.00 0.00 0.00 14 1013.8
20260831183927 95 103 12.0 15.0 0.00 0.00 0.00 14 1013.8
20260831183429 96 126 8.0 14.0 0.00 0.00 0.00 13 1013.8
20260831182930 96 149 7.0 11.0 0.00 0.00 0.00 13 1013.8
20260831182424 97 103 5.0 13.0 0.00 0.00 0.00 13 1013.8
20260831181926 96 140 8.0 12.0 0.00 0.00 0.00 13 1013.8
20260831181428 96 135 6.0 11.0 0.00 0.00 0.00 13 1013.8
20260831180922 97 157 5.0 10.0 0.00 0.00 0.00 13 1013.8
20260831180423 97 127 8.0 8.0 0.00 0.00 0.00 13 1013.8
20260831175925 96 246 4.0 13.0 0.00 0.00 0.00 13 1013.8
20260831175424 96 131 8.0 12.0 0.00 0.00 0.00 14 1013.8
20260831174921 96 124 9.0 13.0 0.00 0.00 0.00 14 1014.8
20260831174423 94 125 7.0 10.0 0.00 0.00 0.00 14 1014.8
20260831173917 95 138 5.0 12.0 0.00 0.00 0.00 16 1014.8
20260831173418 95 128 5.0 10.0 0.00 0.00 0.00 14 1014.8
20260831172920 95 129 6.0 10.0 0.00 0.00 0.00 16 1014.8
20260831172418 95 211 7.0 10.0 0.00 0.00 0.00 16 1014.8
20260831171920 95 149 6.0 9.0 0.00 0.00 0.00 16 1014.8
20260831171422 94 139 4.0 15.0 0.00 0.00 0.00 16 1014.8
20260831170920 94 114 8.0 8.0 0.00 0.00 0.00 16 1014.8
20260831170422 94 120 7.0 12.0 0.00 0.00 0.00 16 1014.8
20260831165924 94 157 4.0 9.0 0.00 0.00 0.00 16 1014.8
20260831165422 93 224 4.0 12.0 0.00 0.00 0.00 16 1014.8
20260831164924 93 154 4.0 10.0 0.00 0.00 0.00 17 1014.8
20260831164425 94 247 4.0 10.0 0.00 0.00 0.00 16 1014.8
20260831163924 93 128 4.0 9.0 0.00 0.00 0.00 16 1014.8
20260831163426 93 220 6.0 12.0 0.00 0.00 0.00 17 1014.8
20260831162928 93 139 8.0 10.0 0.00 0.00 0.00 17 1014.8
20260831162426 92 157 5.0 9.0 0.00 0.00 0.00 17 1014.8
20260831161928 92 136 4.0 10.0 0.00 0.00 0.00 17 1014.8
20260831161430 92 207 6.0 10.0 0.00 0.00 0.00 17 1014.8
20260831160924 91 222 5.0 8.0 0.00 0.00 0.00 17 1014.8
20260831160426 91 160 5.0 7.0 0.00 0.00 0.00 17 1014.8
20260831155928 91 113 5.0 8.0 0.00 0.00 0.00 18 1014.8
20260831155426 90 206 4.0 9.0 0.00 0.00 0.00 18 1014.8
20260831154928 90 195 5.0 10.0 0.00 0.00 0.00 19 1014.8
20260831154430 89 226 7.0 9.0 0.00 0.00 0.00 19 1014.8
20260831153929 89 223 6.0 10.0 0.00 0.00 0.00 20 1014.8
20260831153430 89 189 4.0 7.0 0.00 0.00 0.00 20 1014.8
20260831152932 88 216 4.0 7.0 0.00 0.00 0.00 21 1014.8
20260831152431 89 87 4.0 12.0 0.00 0.00 0.00 22 1014.8
20260831151933 88 109 5.0 9.0 0.00 0.00 0.00 23 1014.8
20260831151435 88 180 7.0 10.0 0.00 0.00 0.00 25 1014.8
20260831150933 87 221 6.0 13.0 0.00 0.00 0.00 28 1014.8
20260831150435 86 216 9.0 13.0 0.00 0.00 0.00 28 1014.8
20260831145937 86 216 9.0 8.0 0.00 0.00 0.00 28 1014.8
20260831145436 86 222 6.0 9.0 0.00 0.00 0.00 28 1014.8
20260831144937 87 69 4.0 13.0 0.00 0.00 0.00 28 1014.8
20260831144439 86 115 4.0 11.0 0.00 0.00 0.00 28 1014.8
20260831143933 86 228 7.0 11.0 0.00 0.00 0.00 29 1014.8
20260831143431 85 196 7.0 13.0 0.00 0.00 0.00 29 1014.8
20260831142933 84 207 8.0 14.0 0.00 0.00 0.00 31 1014.8
20260831142427 84 146 8.0 14.0 0.00 0.00 0.00 31 1014.8
20260831141929 84 199 10.0 12.0 0.00 0.00 0.00 32 1014.8
20260831141431 84 165 8.0 12.0 0.00 0.00 0.00 33 1014.8
20260831140929 83 202 7.0 14.0 0.00 0.00 0.00 34 1014.8
20260831140431 83 211 9.0 15.0 0.00 0.00 0.00 35 1014.8
20260831135933 83 197 11.0 10.0 0.00 0.00 0.00 35 1014.8
20260831135431 83 213 7.0 12.0 0.00 0.00 0.00 35 1014.8
20260831134933 83 234 7.0 12.0 0.00 0.00 0.00 36 1014.8
20260831134435 82 221 8.0 11.0 0.00 0.00 0.00 38 1013.8
20260831133934 82 194 5.0 12.0 0.00 0.00 0.00 39 1013.8
20260831133436 82 216 8.0 11.0 0.00 0.00 0.00 39 1013.8
20260831132933 81 195 6.0 8.0 0.00 0.00 0.00 40 1013.8
20260831132432 81 203 4.0 6.0 0.00 0.00 0.00 41 1013.8
20260831131933 81 195 4.0 7.0 0.00 0.00 0.00 43 1013.8
20260831131434 81 199 4.0 8.0 0.00 0.00 0.00 43 1013.8
20260831130933 80 207 5.0 8.0 0.00 0.00 0.00 43 1013.8
20260831130435 80 211 5.0 6.0 0.00 0.00 0.00 44 1013.8
20260831125932 80 210 4.0 7.0 0.00 0.00 0.00 44 1013.8
20260831125431 80 139 4.0 7.0 0.00 0.00 0.00 44 1013.8
20260831124933 80 175 4.0 6.0 0.00 0.00 0.00 44 1013.8
20260831124429 80 166 4.0 7.0 0.00 0.00 0.00 43 1012.8
20260831124006 80 170 3.0 9.0 0.00 0.00 0.00 42 1012.8
20260831123928 80 170 3.0 9.0 0.00 0.00 0.00 42 1012.8
20260831123430 80 193 0.0 7.0 0.00 0.00 0.00 42 1012.8
20260831122932 80 156 5.0 8.0 0.00 0.00 0.00 43 1012.8
20260831122430 80 216 6.0 9.0 0.00 0.00 0.00 43 1012.8
20260831121932 80 211 5.0 9.0 0.00 0.00 0.00 43 1012.8
20260831121434 80 160 5.0 8.0 0.00 0.00 0.00 43 1012.8
20260831120933 80 212 5.0 7.0 0.00 0.00 0.00 42 1012.8
20260831120435 80 213 3.0 10.0 0.00 0.00 0.00 42 1012.8
20260831115936 80 157 4.0 9.0 0.00 0.00 0.00 42 1012.8
20260831115435 80 220 6.0 7.0 0.00 0.00 0.00 42 1012.8
20260831114937 80 181 4.0 7.0 0.00 0.00 0.00 42 1012.8
20260831114439 80 166 4.0 7.0 0.00 0.00 0.00 42 1012.8
20260831113937 81 180 3.0 7.0 0.00 0.00 0.00 41 1012.8
20260831113439 81 186 4.0 8.0 0.00 0.00 0.00 41 1012.8
20260831112941 81 223 4.0 8.0 0.00 0.00 0.00 40 1012.8
20260831112512 81 127 4.0 9.0 0.00 0.00 0.00 40 1012.8
20260831112440 81 127 4.0 9.0 0.00 0.00 0.00 40 1012.8
20260831111942 81 212 4.0 7.0 0.00 0.00 0.00 40 1012.8
20260831111443 81 211 5.0 9.0 0.00 0.00 0.00 40 1012.8
20260831110942 81 175 5.0 7.0 0.00 0.00 0.00 40 1012.8
20260831110444 81 185 3.0 10.0 0.00 0.00 0.00 40 1012.8